This demonstration page uses our WeatherBlox Daily Observations layout. Learn more.

Left ArrowRight Arrow

Hourly Observations for November 10, 2019

Temp ( °F °C ) Dew Point ( °F °C ) Humidity (%) Winds ( mph kmh ) Pressure ( in mb ) Visibility ( mi km ) Precip ( " mm )
12:53 am 00:53 Clear 52 11.1 35 1.7 53 53 Calm 30.04 1017 10 16 0.00 0.00
1:53 am 01:53 Clear 50 10 37 2.8 61 61 Calm 30.05 1018 10 16 0.00 0.00
2:53 am 02:53 Clear 49 9.4 36 2.2 61 61 Calm 30.04 1017 10 16 0.00 0.00
3:53 am 03:53 Clear 48 8.9 35 1.7 61 61 Calm 30.04 1017 10 16 0.00 0.00
4:53 am 04:53 Clear 45 7.2 35 1.7 68 68 Calm 30.05 1018 10 16 0.00 0.00
5:53 am 05:53 Clear 45 7.2 35 1.7 68 68 Calm 30.06 1018 10 16 0.00 0.00
6:53 am 06:53 Sunny 44 6.7 33 0.6 65 65 Calm 30.08 1019 10 16 0.00 0.00
7:53 am 07:53 Sunny 49 9.4 34 1.1 56 56 Calm 30.09 1019 10 16 0.00 0.00
8:53 am 08:53 Sunny 56 13.3 33 0.6 42 42 Calm 30.09 1019 10 16 0.00 0.00
9:53 am 09:53 Sunny 64 17.8 36 2.2 35 35 S 5 7 30.06 1018 10 16 0.00 0.00
10:53 am 10:53 Sunny 70 21.1 37 2.8 30 30 SSE 5 7 30.05 1018 10 16 0.00 0.00
11:53 am 11:53 Sunny 77 25 37 2.8 24 24 VRB 3 6 30.01 1016 10 16 0.00 0.00
12:53 pm 12:53 Sunny 85 29.4 38 3.3 19 19 N 10 17 29.97 1015 10 16 0.00 0.00
1:53 pm 13:53 Sunny 86 30 40 4.4 20 20 NNE 18 30 29.95 1014 10 16 0.00 0.00
2:53 pm 14:53 Sunny 86 30 41 5 20 20 N 16 26 29.94 1014 10 16 0.00 0.00
3:53 pm 15:53 Sunny 86 30 39 3.9 19 19 N 9 15 29.94 1014 10 16 0.00 0.00
4:53 pm 16:53 Sunny 81 27.2 41 5 24 24 NNW 6 9 29.95 1014 10 16 0.00 0.00
5:53 pm 17:53 Clear 74 23.3 40 4.4 29 29 N 7 11 29.97 1015 10 16 0.00 0.00
6:53 pm 18:53 Clear 76 24.4 41 5 29 29 NNW 8 13 29.98 1015 10 16 0.00 0.00
7:53 pm 19:53 Clear 73 22.8 41 5 32 32 NNW 6 9 29.99 1016 10 16 0.00 0.00
8:53 pm 20:53 Clear 74 23.3 41 5 31 31 NNW 9 15 30.01 1016 10 16 0.00 0.00
9:53 pm 21:53 Clear 74 23.3 40 4.4 29 29 NNW 9 15 30.02 1017 10 16 0.00 0.00
10:53 pm 22:53 Clear 72 22.2 41 5 33 33 NNW 9 15 30.01 1016 10 16 0.00 0.00
11:53 pm 23:53 Clear 70 21.1 41 5 35 35 NW 5 7 30.01 1016 10 16 0.00 0.00

Powered by AerisWeather